Track GONETS M-7 now! 10-day predictions GONETS M-7 is classified as:
1 39251U 13048C 26255.25421080 .00000037 00000-0 19351-3 0 9990 2 39251 82.4868 292.0777 0017777 28.7111 331.4943 12.42917146589658